This demonstration page uses our WeatherBlox Daily Observations layout. Learn more.

Left ArrowRight Arrow

39.92423, -83.80882

Hourly Observations for January 22, 2021

Temp ( °F °C ) Dew Point ( °F °C ) Humidity (%) Winds ( mph kmh ) Pressure ( in mb ) Visibility ( mi km ) Precip ( " mm )
12:56 am 00:56 Clear 36 2.2 23 -5 59 59 WNW 15 24 29.82 1010 10 16.0934 0 0
1:56 am 01:56 Clear 33 0.6 24 -4.4 70 70 WNW 18 30 29.84 1010 10 16.0934 0 0
2:56 am 02:56 Clear 31 -0.6 25 -3.9 79 79 W 16 26 29.85 1011 10 16.0934 0 0
3:56 am 03:56 Clear 30 -1.1 25 -3.9 82 82 W 14 22 29.86 1011 10 16.0934 0 0
4:56 am 04:56 Partly Cloudy 29 -1.7 25 -3.9 85 85 W 12 19 29.87 1011 10 16.0934 0 0
5:56 am 05:56 Cloudy 29 -1.7 24 -4.4 82 82 W 12 19 29.89 1012 10 16.0934 0 0
6:56 am 06:56 Cloudy 30 -1.1 24 -4.4 79 79 W 9 15 29.91 1013 10 16.0934 0 0
7:56 am 07:56 Mostly Cloudy 28 -2.2 24 -4.4 85 85 W 10 17 29.93 1014 10 16.0934 0 0
8:56 am 08:56 Sunny 28 -2.2 25 -3.9 88 88 W 12 19 29.96 1015 10 16.0934 0 0
9:29 am 09:29 Mostly Cloudy 30 -1 25 -4 80 80 W 12 19 30.01 1016 10 16.0934 0 0
9:56 am 09:56 Cloudy 33 0.6 25 -3.9 72 72 W 15 24 29.99 1016 10 16.0934 0.01 0.254
10:05 am 10:05 Cloudy with Haze 30 -1 27 -3 86 86 W 15 24 30.03 1017 0.5 0.80467 0.05 1.27
10:14 am 10:14 Cloudy with Haze 30 -1 25 -4 80 80 WNW 16 26 30.04 1017 1 1.60934 0.05 1.27
10:21 am 10:21 Cloudy 30 -1 25 -4 80 80 W 13 20 30.04 1017 10 16.0934 0.05 1.27
10:56 am 10:56 Cloudy 31 -0.6 25 -3.9 79 79 W 15 24 30.03 1017 10 16.0934 0.09 2.286
11:56 am 11:56 Cloudy 32 0 24 -4.4 73 73 WNW 16 26 30.04 1017 10 16.0934 0 0
12:56 pm 12:56 Cloudy 31 -0.6 23 -5 72 72 WNW 17 28 30.04 1017 10 16.0934 0 0
1:29 pm 13:29 Cloudy 30 -1 21 -6 69 69 WNW 15 24 30.07 1018 10 16.0934 0 0
1:47 pm 13:47 Cloudy 30 -1 21 -6 69 69 WNW 16 26 30.07 1018 10 16.0934 0 0
1:56 pm 13:56 Cloudy 32 0 22 -5.6 66 66 WNW 16 26 30.04 1017 10 16.0934 0 0
2:03 pm 14:03 Cloudy 34 1 21 -6 60 60 W 18 30 30.05 1018 10 16.0934 0 0
2:56 pm 14:56 Partly Cloudy 33 0.6 18 -7.8 54 54 WNW 18 30 30.05 1018 10 16.0934 0 0
3:56 pm 15:56 Sunny 32 0 14 -10 47 47 W 17 28 30.06 1018 10 16.0934 0 0
4:56 pm 16:56 Sunny 30 -1.1 17 -8.3 58 58 WNW 15 24 30.09 1019 10 16.0934 0 0
5:56 pm 17:56 Clear 27 -2.8 16 -8.9 63 63 WNW 13 20 30.12 1020 10 16.0934 0 0
6:56 pm 18:56 Clear 26 -3.3 17 -8.3 69 69 WNW 10 17 30.14 1021 10 16.0934 0 0
7:56 pm 19:56 Clear 24 -4.4 16 -8.9 71 71 NW 8 13 30.17 1022 10 16.0934 0 0
8:56 pm 20:56 Clear 23 -5 16 -8.9 74 74 NW 10 17 30.18 1022 10 16.0934 0 0
9:56 pm 21:56 Clear 20 -6.7 15 -9.4 81 81 NNW 12 19 30.2 1023 10 16.0934 0 0
10:56 pm 22:56 Clear 18 -7.8 14 -10 84 84 NW 10 17 30.23 1024 10 16.0934 0 0
11:56 pm 23:56 Clear 18 -7.8 11 -11.7 74 74 NW 8 13 30.25 1025 10 16.0934 0 0

Powered by AerisWeather